User: anonymous   Login
Location: Beaufort Park
(39.1418°N, 76.9433°W)
Time: 22:45:36
(UTC+00:00)
Language:

Cosmos 1953 Rocket - Orbit

View from above orbital plane
View from above orbital plane
View from above satellite
View from above satellite

Ground track
Ground track

The orbit data is extracted from the following two-line orbital elements,

1 19211U 88050B   21017.85419624  .00000068  00000-0  53288-5 0  9990
2 19211  82.5251  56.4662 0023247 116.5489  56.4125 14.83094667739965
Epoch (UTC): 17 January 2021 20:30:02
Eccentricity: 0.0023247
inclination: 82.5251°
perigee height: 603 km
apogee height: 636 km
right ascension of ascending node: 56.4662°
argument of perigee: 116.5489°
revolutions per day: 14.83094667
mean anomaly at epoch: 56.4125°
orbit number at epoch: 73996

The dashed part of the orbit path shows where the satellite is in the earth's shadow,  

DLR